(164840) = 1999 TK88 = 2003 SR301

Discovered at Socorro on 1999-10-15 by LINEAR.

Orbit

Orbit type: Main Belt

Note: WebGL enabled browser required.

epoch2022-01-21.0
epoch JD2459600.5
perihelion date2020-01-21.61884
perihelion JD2458870.11884
argument of perihelion (°)335.75336
ascending node (°)18.43935
inclination (°)6.53538
eccentricity0.2159636
perihelion distance (AU)2.0074235
Tisserand w.r.t. Jupiter3.4
ΔV w.r.t. Earth (km/sec)9.1
semimajor axis (AU)2.5603704
mean anomaly (°)175.71111
mean daily motion (°/day)0.24057450
aphelion distance (AU)3.113
period (years)4.1
P-vector [x]0.99402376
P-vector [y]-0.07191847
P-vector [z]-0.08212489
Q-vector [x]0.10305699
Q-vector [y]0.86633648
Q-vector [z]0.48871296
absolute magnitude16.96
phase slope0.15
uncertainty0
referenceMPO 694600
observations used182
oppositions15
arc length (days)8160
first opposition used1999
last opposition used2022
residual rms (arc-secs)0.76
perturbers coarse indicatorM-v
perturbers precise indicator003Ek
first observation date used1999-10-09.0
last observation date used2022-02-10.0
computer namePan
JD of orbit computation2456789.348800
perihelion JD uncertainty (days)8.6803E-05
argument of perihelion uncertainty (°)3.6057E-05
ascending node uncertainty (°)3.3490E-05
inclination uncertainty (°)5.6119E-06
eccentricity uncertainty 1.4210E-07
perihelion distance uncertainty (AU)3.8328E-07
Minimum Orbit Intersection Distances (in AU)
for orbit epoch: 2458200.5, reference: MPO401382
Mercury1.62697
Venus1.27642
Earth0.999767
Mars0.612958
Jupiter2.32189
Saturn6.2413
Uranus15.0816
Neptune27.0766

Observations

189 total observations over interval: 1999 10 09.28621 – 2022 04 02.406707
These data are available for download (format description).

Date (UT) J2000 RA J2000 Dec Magn Location Ref
1999 10 09.28621 01 28 15.88 +09 31 43.9 19.3   704 – Lincoln Laboratory ETS, New Mexico MPS 15274
1999 10 09.29949 01 28 15.19 +09 31 43.0 19.7   704 – Lincoln Laboratory ETS, New Mexico MPS 15274
1999 10 09.31251 01 28 14.33 +09 31 42.6 19.5   704 – Lincoln Laboratory ETS, New Mexico MPS 15274
1999 10 09.32586 01 28 13.53 +09 31 42.9 19.9   704 – Lincoln Laboratory ETS, New Mexico MPS 15274
1999 10 09.33933 01 28 12.69 +09 31 42.0 19.6   704 – Lincoln Laboratory ETS, New Mexico MPS 15274
1999 10 15.40975 01 22 13.64 +09 28 52.8 19.0   704 – Lincoln Laboratory ETS, New Mexico MPS 13742
1999 10 15.42524 01 22 12.71 +09 28 51.8 19.6   704 – Lincoln Laboratory ETS, New Mexico MPS 13742
1999 10 15.44054 01 22 11.74 +09 28 51.5 18.8   704 – Lincoln Laboratory ETS, New Mexico MPS 13742
1999 10 15.47125 01 22 09.77 +09 28 50.1 19.5   704 – Lincoln Laboratory ETS, New Mexico MPS 13742
1999 10 19.19448 01 18 31.32 +09 26 35.7 18.0   704 – Lincoln Laboratory ETS, New Mexico MPS 13742
1999 10 19.20825 01 18 30.42 +09 26 35.7 18.9   704 – Lincoln Laboratory ETS, New Mexico MPS 13742
1999 10 19.23579 01 18 28.70 +09 26 34.6 18.2   704 – Lincoln Laboratory ETS, New Mexico MPS 13742
1999 10 19.24958 01 18 27.82 +09 26 34.6 18.0   704 – Lincoln Laboratory ETS, New Mexico MPS 13742
2003 09 02.30647 00 33 12.23 -02 15 40.2 19.1   704 – Lincoln Laboratory ETS, New Mexico MPS 112534
2003 09 02.31807 00 33 11.83 -02 15 40.1 19.2   704 – Lincoln Laboratory ETS, New Mexico MPS 112534
2003 09 02.32972 00 33 11.26 -02 15 39.9 19.5   704 – Lincoln Laboratory ETS, New Mexico MPS 112534
2003 09 02.35291 00 33 10.50 -02 15 40.1 19.3   704 – Lincoln Laboratory ETS, New Mexico MPS 112534
2003 09 17.26295 00 22 20.00 -02 22 59.5 18.0   644 – Palomar Mountain/NEAT MPS 87389
2003 09 17.33995 00 22 15.72 -02 23 02.7 18.6   644 – Palomar Mountain/NEAT MPS 87389
2003 09 17.40251 00 22 12.23 -02 23 05.4 18.7   644 – Palomar Mountain/NEAT MPS 87389
2003 09 18.28964 00 21 25.28 -02 23 43.9 18.5   704 – Lincoln Laboratory ETS, New Mexico MPS 87389
2003 09 18.31346 00 21 23.96 -02 23 45.0 19.1   704 – Lincoln Laboratory ETS, New Mexico MPS 87389
2003 09 18.32558 00 21 23.22 -02 23 46.0 18.9   704 – Lincoln Laboratory ETS, New Mexico MPS 87389
2003 09 18.33739 00 21 22.65 -02 23 45.7 19.2   704 – Lincoln Laboratory ETS, New Mexico MPS 87389
2003 09 28.23046 00 12 11.51 -02 29 45.6 19.3   704 – Lincoln Laboratory ETS, New Mexico MPS 96375
2003 09 28.24390 00 12 10.72 -02 29 45.3 19.6   704 – Lincoln Laboratory ETS, New Mexico MPS 96375
2003 09 28.25675 00 12 09.99 -02 29 46.1 19.6   704 – Lincoln Laboratory ETS, New Mexico MPS 96375
2003 09 28.26928 00 12 09.20 -02 29 45.8 19.4   704 – Lincoln Laboratory ETS, New Mexico MPS 96375
2003 09 28.28191 00 12 08.47 -02 29 45.7 20.0   704 – Lincoln Laboratory ETS, New Mexico MPS 96375
2003 10 19.20556 23 55 30.89 -02 13 59.8 18.9   704 – Lincoln Laboratory ETS, New Mexico MPS 112534
2003 10 19.21764 23 55 30.45 -02 13 57.3 19.4   704 – Lincoln Laboratory ETS, New Mexico MPS 112534
2003 10 19.22927 23 55 30.05 -02 13 56.5 19.3   704 – Lincoln Laboratory ETS, New Mexico MPS 112534
2003 10 19.24066 23 55 29.59 -02 13 54.7 19.5   704 – Lincoln Laboratory ETS, New Mexico MPS 112534
2003 10 19.25219 23 55 29.18 -02 13 53.9 19.0   704 – Lincoln Laboratory ETS, New Mexico MPS 112534
2003 11 16.154550 23 52 16.651 -00 15 49.44 20.36 V 645 – Apache Point-Sloan Digital Sky Survey MPS 136834
2003 11 16.158022 23 52 16.714 -00 15 48.15 21.30   645 – Apache Point-Sloan Digital Sky Survey MPS 136834
2003 11 20.135370 23 53 50.264 +00 09 55.34 20.24 V 645 – Apache Point-Sloan Digital Sky Survey MPS 136834
2003 11 20.138842 23 53 50.348 +00 09 56.70 21.07   645 – Apache Point-Sloan Digital Sky Survey MPS 136834
2005 01 17.433307 09 47 11.067 +22 36 00.98 21.35 V 645 – Apache Point-Sloan Digital Sky Survey MPS 390109
2005 01 17.436779 09 47 10.891 +22 36 01.89 22.22   645 – Apache Point-Sloan Digital Sky Survey MPS 390109
2006 06 01.16606 13 11 50.82 -10 29 09.3 21.7 V G96 – Mt. Lemmon Survey MPS 172700
2006 06 01.17285 13 11 50.71 -10 29 09.8 20.8 V G96 – Mt. Lemmon Survey MPS 172700
2006 06 01.17950 13 11 50.60 -10 29 09.8 21.4 V G96 – Mt. Lemmon Survey MPS 172700
2006 06 01.18628 13 11 50.42 -10 29 09.3 21.6 V G96 – Mt. Lemmon Survey MPS 172700
2007 08 11.28220 23 17 06.24 -14 27 04.7 19.6   704 – Lincoln Laboratory ETS, New Mexico MPS 213014
2007 08 11.29408 23 17 05.80 -14 27 05.3 19.6   704 – Lincoln Laboratory ETS, New Mexico MPS 213014
2007 08 11.30595 23 17 05.49 -14 27 06.4 19.7   704 – Lincoln Laboratory ETS, New Mexico MPS 213014
2007 08 11.31798 23 17 05.13 -14 27 09.2 19.4   704 – Lincoln Laboratory ETS, New Mexico MPS 213014
2007 08 16.67785 23 14 06.01 -14 38 57.5 18.7 R D29 – Purple Mountain Observatory, XuYi Station MPS 213014
2007 08 16.68848 23 14 05.56 -14 38 58.5 18.8 R D29 – Purple Mountain Observatory, XuYi Station MPS 213014
2007 08 16.69907 23 14 05.13 -14 39 00.3 19.1 R D29 – Purple Mountain Observatory, XuYi Station MPS 213014
2007 08 16.70892 23 14 04.77 -14 39 01.7 19.0 R D29 – Purple Mountain Observatory, XuYi Station MPS 213014
2007 09 04.34932 22 58 50.08 -15 15 01.5 18.3 V 703 – Catalina Sky Survey MPS 214350
2007 09 04.35685 22 58 49.62 -15 15 01.7 18.6 V 703 – Catalina Sky Survey MPS 214350
2007 09 04.36440 22 58 49.15 -15 15 02.0 18.6 V 703 – Catalina Sky Survey MPS 214350
2007 09 04.37196 22 58 48.72 -15 15 02.6 18.4 V 703 – Catalina Sky Survey MPS 214350
2007 09 15.18205 22 48 58.30 -15 18 21.9 18.7   704 – Lincoln Laboratory ETS, New Mexico MPS 215948
2007 09 15.20688 22 48 56.95 -15 18 22.2 19.1   704 – Lincoln Laboratory ETS, New Mexico MPS 215948
2007 09 15.21924 22 48 56.23 -15 18 21.2 18.7   704 – Lincoln Laboratory ETS, New Mexico MPS 215948
2007 09 15.23162 22 48 55.59 -15 18 21.1 19.4   704 – Lincoln Laboratory ETS, New Mexico MPS 215948
2007 10 02.54436 22 37 17.68 -14 38 02.3 19.3 V E12 – Siding Spring Survey MPS 218038
2007 10 02.55451 22 37 17.40 -14 38 01.0 20.1 V E12 – Siding Spring Survey MPS 218038
2007 10 02.56472 22 37 17.04 -14 37 58.2 19.6 V E12 – Siding Spring Survey MPS 218038
2007 10 02.57491 22 37 16.71 -14 37 55.6 19.9 V E12 – Siding Spring Survey MPS 218038
2007 10 13.14023 22 34 32.25 -13 45 49.5 19.1   704 – Lincoln Laboratory ETS, New Mexico MPS 220131
2007 10 13.15157 22 34 32.15 -13 45 45.9 19.6   704 – Lincoln Laboratory ETS, New Mexico MPS 220131
2007 10 13.16288 22 34 32.09 -13 45 41.4 19.7   704 – Lincoln Laboratory ETS, New Mexico MPS 220131
2007 10 13.17421 22 34 32.01 -13 45 37.7 19.4   704 – Lincoln Laboratory ETS, New Mexico MPS 220131
2007 10 13.18557 22 34 31.89 -13 45 34.1 19.7   704 – Lincoln Laboratory ETS, New Mexico MPS 220131
2007 10 14.19062 22 34 28.16 -13 39 35.7 19.5 V G96 – Mt. Lemmon Survey MPS 220131
2007 10 14.19790 22 34 28.12 -13 39 32.9 19.6 V G96 – Mt. Lemmon Survey MPS 220131
2007 10 14.20525 22 34 28.09 -13 39 30.4 19.5 V G96 – Mt. Lemmon Survey MPS 220131
2007 10 14.21258 22 34 28.05 -13 39 27.7 19.5 V G96 – Mt. Lemmon Survey MPS 220131
2007 10 15.15752 22 34 26.61 -13 33 41.2 19.8 V G96 – Mt. Lemmon Survey MPS 220131
2007 10 15.17423 22 34 26.54 -13 33 35.0 19.6 V G96 – Mt. Lemmon Survey MPS 220131
2007 10 15.18262 22 34 26.50 -13 33 32.0 19.6 V G96 – Mt. Lemmon Survey MPS 220131
2007 11 13.11163 22 47 16.08 -09 38 47.6 20.1 V G96 – Mt. Lemmon Survey MPS 228115
2007 11 13.11855 22 47 16.36 -09 38 43.5 20.4 V G96 – Mt. Lemmon Survey MPS 228115
2007 11 13.12551 22 47 16.72 -09 38 39.5 20.2 V G96 – Mt. Lemmon Survey MPS 228115
2007 11 13.13238 22 47 17.08 -09 38 35.1 20.2 V G96 – Mt. Lemmon Survey MPS 228115
2008 01 12.12787 00 07 29.46 +02 05 02.4 21.1 V G96 – Mt. Lemmon Survey MPS 234996
2008 01 12.13340 00 07 29.96 +02 05 06.0 21.8 V G96 – Mt. Lemmon Survey MPS 234996
2008 01 12.13900 00 07 30.50 +02 05 11.0 20.4 V G96 – Mt. Lemmon Survey MPS 234996
2008 01 12.14464 00 07 31.08 +02 05 15.6 20.8 V G96 – Mt. Lemmon Survey MPS 234996
2008 12 01.47210 09 28 03.93 +23 22 26.5 21.5 V G96 – Mt. Lemmon Survey MPS 268661
2008 12 01.47870 09 28 03.97 +23 22 27.3 21.7 V G96 – Mt. Lemmon Survey MPS 268661
